Weather in Lazarevo

Russia / Tula Oblast     53°51′14″N   37°29′17″E
temp.,
°C
wind,
m/s
gust,
m/s
humid.,
%
clouds,
%
prec.,
mm/h
press.,
hPa
HPBL,
m
11 may, tue
tue1100:00+7nne5148099 0.0 1024387
03:00+7nne6148477 0.0 1024374
06:00+7nne715875 0.0 1023369
09:00+12ne812755 0.1 1023520
12:00+17ne8106991 0.0 1022961
15:00+16ene61076100 0.1 1022882
18:00+14se6118872 2.1 1023578
21:00+10ese3593100 2.1 1025102
12 may, wed
wed1200:00+8se359199 0.0 1026104
03:00+6se33880 0.0 102644
06:00+7e24885 0.0 1026117
09:00+12e4665100 0.0 1025600
12:00+11ene5682100 0.6 1023580
15:00+9s0190100 3.9 1021130
18:00+10sse23828 0.3 1019370
21:00+7ese47922 0.3 1019117
13 may, thu
thu1300:00+7e51293100 0.0 1019252
03:00+9ese61492100 0.0 1018433
06:00+10ese51394100 0.0 1018454
09:00+12ese61291100 0.8 1018628
12:00+14e5980100 0.6 1016476
15:00+12sw2497100 4.0 1015183
18:00+14ssw478213 0.9 1015829
21:00+11s118830 1.0 101610
14 may, fri
fri1400:00+9se33932 0.0 101736
03:00+9se2290100 0.0 101721
06:00+10ese3589100 0.0 101793
09:00+16ese588314 0.0 1016426
12:00+20se7107189 0.4 1014982
15:00+21sse61169100 0.8 10131333
18:00+20sse6117794 3.4 1011585
21:00+17s41291100 9.6 1011248
15 may, sat
sat1500:00+16s3489100 1.3 101167
03:00+16sse71589100 2.2 1012379
06:00+14sse41085100 0.8 1010216
09:00+17sse5981100 1.1 1011519
12:00+21s5973100 0.8 10101142
15:00+21ssw58647 3.1 10091369
18:00+19sw587591 1.1 1010861
21:00+15ssw410915 1.6 1011246